Index of /20260427/WXO-DD/model_rdps/10km/12/075
Name Last modified Size Description
Parent Directory -
20260427T12Z_MSC_RDPS_AbsoluteVorticity_IsbL-0250_RLatLon0.09_PT075H.grib2 2026-04-27 15:04 619K
20260427T12Z_MSC_RDPS_AbsoluteVorticity_IsbL-0500_RLatLon0.09_PT075H.grib2 2026-04-27 15:04 709K
20260427T12Z_MSC_RDPS_AbsoluteVorticity_IsbL-0700_RLatLon0.09_PT075H.grib2 2026-04-27 15:04 618K
20260427T12Z_MSC_RDPS_AbsoluteVorticity_IsbL-0850_RLatLon0.09_PT075H.grib2 2026-04-27 15:04 772K
20260427T12Z_MSC_RDPS_AirTemp_AGL-120m_RLatLon0.09_PT075H.grib2 2026-04-27 15:04 383K
20260427T12Z_MSC_RDPS_AirTemp_AGL-2m_RLatLon0.09_PT075H.grib2 2026-04-27 15:04 640K
20260427T12Z_MSC_RDPS_AirTemp_AGL-40m_RLatLon0.09_PT075H.grib2 2026-04-27 15:04 397K
20260427T12Z_MSC_RDPS_AirTemp_AGL-80m_RLatLon0.09_PT075H.grib2 2026-04-27 15:04 390K
20260427T12Z_MSC_RDPS_AirTemp_IsbL-0001_RLatLon0.09_PT075H.grib2 2026-04-27 15:04 321K
20260427T12Z_MSC_RDPS_AirTemp_IsbL-0005_RLatLon0.09_PT075H.grib2 2026-04-27 15:04 291K
20260427T12Z_MSC_RDPS_AirTemp_IsbL-0010_RLatLon0.09_PT075H.grib2 2026-04-27 15:04 304K
20260427T12Z_MSC_RDPS_AirTemp_IsbL-0020_RLatLon0.09_PT075H.grib2 2026-04-27 15:04 319K
20260427T12Z_MSC_RDPS_AirTemp_IsbL-0030_RLatLon0.09_PT075H.grib2 2026-04-27 15:04 340K
20260427T12Z_MSC_RDPS_AirTemp_IsbL-0050_RLatLon0.09_PT075H.grib2 2026-04-27 15:04 313K
20260427T12Z_MSC_RDPS_AirTemp_IsbL-0100_RLatLon0.09_PT075H.grib2 2026-04-27 15:04 424K
20260427T12Z_MSC_RDPS_AirTemp_IsbL-0150_RLatLon0.09_PT075H.grib2 2026-04-27 15:04 422K
20260427T12Z_MSC_RDPS_AirTemp_IsbL-0175_RLatLon0.09_PT075H.grib2 2026-04-27 15:04 409K
20260427T12Z_MSC_RDPS_AirTemp_IsbL-0200_RLatLon0.09_PT075H.grib2 2026-04-27 15:04 413K
20260427T12Z_MSC_RDPS_AirTemp_IsbL-0225_RLatLon0.09_PT075H.grib2 2026-04-27 15:04 412K
20260427T12Z_MSC_RDPS_AirTemp_IsbL-0250_RLatLon0.09_PT075H.grib2 2026-04-27 15:04 421K
20260427T12Z_MSC_RDPS_AirTemp_IsbL-0275_RLatLon0.09_PT075H.grib2 2026-04-27 15:04 400K
20260427T12Z_MSC_RDPS_AirTemp_IsbL-0300_RLatLon0.09_PT075H.grib2 2026-04-27 15:04 407K
20260427T12Z_MSC_RDPS_AirTemp_IsbL-0350_RLatLon0.09_PT075H.grib2 2026-04-27 15:04 421K
20260427T12Z_MSC_RDPS_AirTemp_IsbL-0400_RLatLon0.09_PT075H.grib2 2026-04-27 15:04 422K
20260427T12Z_MSC_RDPS_AirTemp_IsbL-0450_RLatLon0.09_PT075H.grib2 2026-04-27 15:04 395K
20260427T12Z_MSC_RDPS_AirTemp_IsbL-0500_RLatLon0.09_PT075H.grib2 2026-04-27 15:04 403K
20260427T12Z_MSC_RDPS_AirTemp_IsbL-0550_RLatLon0.09_PT075H.grib2 2026-04-27 15:04 420K
20260427T12Z_MSC_RDPS_AirTemp_IsbL-0600_RLatLon0.09_PT075H.grib2 2026-04-27 15:04 440K
20260427T12Z_MSC_RDPS_AirTemp_IsbL-0650_RLatLon0.09_PT075H.grib2 2026-04-27 15:04 457K
20260427T12Z_MSC_RDPS_AirTemp_IsbL-0700_RLatLon0.09_PT075H.grib2 2026-04-27 15:04 479K
20260427T12Z_MSC_RDPS_AirTemp_IsbL-0750_RLatLon0.09_PT075H.grib2 2026-04-27 15:04 515K
20260427T12Z_MSC_RDPS_AirTemp_IsbL-0800_RLatLon0.09_PT075H.grib2 2026-04-27 15:04 564K
20260427T12Z_MSC_RDPS_AirTemp_IsbL-0850_RLatLon0.09_PT075H.grib2 2026-04-27 15:04 627K
20260427T12Z_MSC_RDPS_AirTemp_IsbL-0875_RLatLon0.09_PT075H.grib2 2026-04-27 15:04 653K
20260427T12Z_MSC_RDPS_AirTemp_IsbL-0900_RLatLon0.09_PT075H.grib2 2026-04-27 15:04 667K
20260427T12Z_MSC_RDPS_AirTemp_IsbL-0925_RLatLon0.09_PT075H.grib2 2026-04-27 15:04 533K
20260427T12Z_MSC_RDPS_AirTemp_IsbL-0950_RLatLon0.09_PT075H.grib2 2026-04-27 15:04 537K
20260427T12Z_MSC_RDPS_AirTemp_IsbL-0970_RLatLon0.09_PT075H.grib2 2026-04-27 15:04 530K
20260427T12Z_MSC_RDPS_AirTemp_IsbL-0985_RLatLon0.09_PT075H.grib2 2026-04-27 15:04 519K
20260427T12Z_MSC_RDPS_AirTemp_IsbL-1000_RLatLon0.09_PT075H.grib2 2026-04-27 15:04 502K
20260427T12Z_MSC_RDPS_AirTemp_IsbL-1015_RLatLon0.09_PT075H.grib2 2026-04-27 15:04 502K
20260427T12Z_MSC_RDPS_Albedo_Sfc_RLatLon0.09_PT075H.grib2 2026-04-27 15:04 161K
20260427T12Z_MSC_RDPS_CAPE_Sfc_RLatLon0.09_PT075H.grib2 2026-04-27 15:04 1.6M
20260427T12Z_MSC_RDPS_CIN_Sfc_RLatLon0.09_PT075H.grib2 2026-04-27 15:04 1.1M
20260427T12Z_MSC_RDPS_CloudWater_EAtm_RLatLon0.09_PT075H.grib2 2026-04-27 15:04 219K
20260427T12Z_MSC_RDPS_ConvectivePrecip-Accum_Sfc_RLatLon0.09_PT075H.grib2 2026-04-27 15:04 1.3M
20260427T12Z_MSC_RDPS_DewPointDepression_AGL-2m_RLatLon0.09_PT075H.grib2 2026-04-27 15:04 415K
20260427T12Z_MSC_RDPS_DewPointDepression_IsbL-0001_RLatLon0.09_PT075H.grib2 2026-04-27 15:04 193
20260427T12Z_MSC_RDPS_DewPointDepression_IsbL-0005_RLatLon0.09_PT075H.grib2 2026-04-27 15:04 193
20260427T12Z_MSC_RDPS_DewPointDepression_IsbL-0010_RLatLon0.09_PT075H.grib2 2026-04-27 15:04 193
20260427T12Z_MSC_RDPS_DewPointDepression_IsbL-0020_RLatLon0.09_PT075H.grib2 2026-04-27 15:04 193
20260427T12Z_MSC_RDPS_DewPointDepression_IsbL-0030_RLatLon0.09_PT075H.grib2 2026-04-27 15:04 193
20260427T12Z_MSC_RDPS_DewPointDepression_IsbL-0050_RLatLon0.09_PT075H.grib2 2026-04-27 15:04 84K
20260427T12Z_MSC_RDPS_DewPointDepression_IsbL-0100_RLatLon0.09_PT075H.grib2 2026-04-27 15:04 125K
20260427T12Z_MSC_RDPS_DewPointDepression_IsbL-0150_RLatLon0.09_PT075H.grib2 2026-04-27 15:04 145K
20260427T12Z_MSC_RDPS_DewPointDepression_IsbL-0175_RLatLon0.09_PT075H.grib2 2026-04-27 15:04 176K
20260427T12Z_MSC_RDPS_DewPointDepression_IsbL-0200_RLatLon0.09_PT075H.grib2 2026-04-27 15:04 215K
20260427T12Z_MSC_RDPS_DewPointDepression_IsbL-0225_RLatLon0.09_PT075H.grib2 2026-04-27 15:04 262K
20260427T12Z_MSC_RDPS_DewPointDepression_IsbL-0250_RLatLon0.09_PT075H.grib2 2026-04-27 15:04 299K
20260427T12Z_MSC_RDPS_DewPointDepression_IsbL-0275_RLatLon0.09_PT075H.grib2 2026-04-27 15:04 304K
20260427T12Z_MSC_RDPS_DewPointDepression_IsbL-0300_RLatLon0.09_PT075H.grib2 2026-04-27 15:04 322K
20260427T12Z_MSC_RDPS_DewPointDepression_IsbL-0350_RLatLon0.09_PT075H.grib2 2026-04-27 15:04 325K
20260427T12Z_MSC_RDPS_DewPointDepression_IsbL-0400_RLatLon0.09_PT075H.grib2 2026-04-27 15:04 335K
20260427T12Z_MSC_RDPS_DewPointDepression_IsbL-0450_RLatLon0.09_PT075H.grib2 2026-04-27 15:04 342K
20260427T12Z_MSC_RDPS_DewPointDepression_IsbL-0500_RLatLon0.09_PT075H.grib2 2026-04-27 15:04 349K
20260427T12Z_MSC_RDPS_DewPointDepression_IsbL-0550_RLatLon0.09_PT075H.grib2 2026-04-27 15:04 359K
20260427T12Z_MSC_RDPS_DewPointDepression_IsbL-0600_RLatLon0.09_PT075H.grib2 2026-04-27 15:04 376K
20260427T12Z_MSC_RDPS_DewPointDepression_IsbL-0650_RLatLon0.09_PT075H.grib2 2026-04-27 15:04 384K
20260427T12Z_MSC_RDPS_DewPointDepression_IsbL-0700_RLatLon0.09_PT075H.grib2 2026-04-27 15:04 389K
20260427T12Z_MSC_RDPS_DewPointDepression_IsbL-0750_RLatLon0.09_PT075H.grib2 2026-04-27 15:04 408K
20260427T12Z_MSC_RDPS_DewPointDepression_IsbL-0800_RLatLon0.09_PT075H.grib2 2026-04-27 15:04 436K
20260427T12Z_MSC_RDPS_DewPointDepression_IsbL-0850_RLatLon0.09_PT075H.grib2 2026-04-27 15:04 471K
20260427T12Z_MSC_RDPS_DewPointDepression_IsbL-0875_RLatLon0.09_PT075H.grib2 2026-04-27 15:04 476K
20260427T12Z_MSC_RDPS_DewPointDepression_IsbL-0900_RLatLon0.09_PT075H.grib2 2026-04-27 15:04 467K
20260427T12Z_MSC_RDPS_DewPointDepression_IsbL-0925_RLatLon0.09_PT075H.grib2 2026-04-27 15:04 452K
20260427T12Z_MSC_RDPS_DewPointDepression_IsbL-0950_RLatLon0.09_PT075H.grib2 2026-04-27 15:04 448K
20260427T12Z_MSC_RDPS_DewPointDepression_IsbL-0970_RLatLon0.09_PT075H.grib2 2026-04-27 15:04 441K
20260427T12Z_MSC_RDPS_DewPointDepression_IsbL-0985_RLatLon0.09_PT075H.grib2 2026-04-27 15:04 438K
20260427T12Z_MSC_RDPS_DewPointDepression_IsbL-1000_RLatLon0.09_PT075H.grib2 2026-04-27 15:04 435K
20260427T12Z_MSC_RDPS_DewPointDepression_IsbL-1015_RLatLon0.09_PT075H.grib2 2026-04-27 15:04 427K
20260427T12Z_MSC_RDPS_DewPoint_AGL-2m_RLatLon0.09_PT075H.grib2 2026-04-27 15:04 404K
20260427T12Z_MSC_RDPS_DownwardLongwaveRadiationFlux-Accum_Sfc_RLatLon0.09_PT075H.grib2 2026-04-27 15:04 430K
20260427T12Z_MSC_RDPS_DownwardShortwaveRadiationFlux-Accum_NTAtm_RLatLon0.09_PT075H.grib2 2026-04-27 15:04 115K
20260427T12Z_MSC_RDPS_DownwardShortwaveRadiationFlux-Accum_Sfc_RLatLon0.09_PT075H.grib2 2026-04-27 15:04 627K
20260427T12Z_MSC_RDPS_FreezingRain-Accum1h_Sfc_RLatLon0.09_PT075H.grib2 2026-04-27 15:04 28K
20260427T12Z_MSC_RDPS_FreezingRain-Accum3h_Sfc_RLatLon0.09_PT075H.grib2 2026-04-27 15:04 41K
20260427T12Z_MSC_RDPS_FreezingRain-Accum_Sfc_RLatLon0.09_PT075H.grib2 2026-04-27 15:04 213K
20260427T12Z_MSC_RDPS_GeopotentialHeight_IsbL-0001_RLatLon0.09_PT075H.grib2 2026-04-27 15:04 318K
20260427T12Z_MSC_RDPS_GeopotentialHeight_IsbL-0005_RLatLon0.09_PT075H.grib2 2026-04-27 15:04 336K
20260427T12Z_MSC_RDPS_GeopotentialHeight_IsbL-0010_RLatLon0.09_PT075H.grib2 2026-04-27 15:04 305K
20260427T12Z_MSC_RDPS_GeopotentialHeight_IsbL-0020_RLatLon0.09_PT075H.grib2 2026-04-27 15:04 303K
20260427T12Z_MSC_RDPS_GeopotentialHeight_IsbL-0030_RLatLon0.09_PT075H.grib2 2026-04-27 15:04 305K
20260427T12Z_MSC_RDPS_GeopotentialHeight_IsbL-0050_RLatLon0.09_PT075H.grib2 2026-04-27 15:04 305K
20260427T12Z_MSC_RDPS_GeopotentialHeight_IsbL-0100_RLatLon0.09_PT075H.grib2 2026-04-27 15:04 283K
20260427T12Z_MSC_RDPS_GeopotentialHeight_IsbL-0150_RLatLon0.09_PT075H.grib2 2026-04-27 15:04 227K
20260427T12Z_MSC_RDPS_GeopotentialHeight_IsbL-0175_RLatLon0.09_PT075H.grib2 2026-04-27 15:04 229K
20260427T12Z_MSC_RDPS_GeopotentialHeight_IsbL-0200_RLatLon0.09_PT075H.grib2 2026-04-27 15:04 263K
20260427T12Z_MSC_RDPS_GeopotentialHeight_IsbL-0225_RLatLon0.09_PT075H.grib2 2026-04-27 15:04 264K
20260427T12Z_MSC_RDPS_GeopotentialHeight_IsbL-0250_RLatLon0.09_PT075H.grib2 2026-04-27 15:04 265K
20260427T12Z_MSC_RDPS_GeopotentialHeight_IsbL-0275_RLatLon0.09_PT075H.grib2 2026-04-27 15:04 264K
20260427T12Z_MSC_RDPS_GeopotentialHeight_IsbL-0300_RLatLon0.09_PT075H.grib2 2026-04-27 15:04 264K
20260427T12Z_MSC_RDPS_GeopotentialHeight_IsbL-0350_RLatLon0.09_PT075H.grib2 2026-04-27 15:04 229K
20260427T12Z_MSC_RDPS_GeopotentialHeight_IsbL-0400_RLatLon0.09_PT075H.grib2 2026-04-27 15:04 226K
20260427T12Z_MSC_RDPS_GeopotentialHeight_IsbL-0450_RLatLon0.09_PT075H.grib2 2026-04-27 15:04 294K
20260427T12Z_MSC_RDPS_GeopotentialHeight_IsbL-0500_RLatLon0.09_PT075H.grib2 2026-04-27 15:04 289K
20260427T12Z_MSC_RDPS_GeopotentialHeight_IsbL-0550_RLatLon0.09_PT075H.grib2 2026-04-27 15:04 284K
20260427T12Z_MSC_RDPS_GeopotentialHeight_IsbL-0600_RLatLon0.09_PT075H.grib2 2026-04-27 15:04 279K
20260427T12Z_MSC_RDPS_GeopotentialHeight_IsbL-0650_RLatLon0.09_PT075H.grib2 2026-04-27 15:04 250K
20260427T12Z_MSC_RDPS_GeopotentialHeight_IsbL-0700_RLatLon0.09_PT075H.grib2 2026-04-27 15:04 331K
20260427T12Z_MSC_RDPS_GeopotentialHeight_IsbL-0750_RLatLon0.09_PT075H.grib2 2026-04-27 15:04 334K
20260427T12Z_MSC_RDPS_GeopotentialHeight_IsbL-0800_RLatLon0.09_PT075H.grib2 2026-04-27 15:04 340K
20260427T12Z_MSC_RDPS_GeopotentialHeight_IsbL-0850_RLatLon0.09_PT075H.grib2 2026-04-27 15:04 384K
20260427T12Z_MSC_RDPS_GeopotentialHeight_IsbL-0875_RLatLon0.09_PT075H.grib2 2026-04-27 15:04 390K
20260427T12Z_MSC_RDPS_GeopotentialHeight_IsbL-0900_RLatLon0.09_PT075H.grib2 2026-04-27 15:04 394K
20260427T12Z_MSC_RDPS_GeopotentialHeight_IsbL-0925_RLatLon0.09_PT075H.grib2 2026-04-27 15:04 396K
20260427T12Z_MSC_RDPS_GeopotentialHeight_IsbL-0950_RLatLon0.09_PT075H.grib2 2026-04-27 15:04 399K
20260427T12Z_MSC_RDPS_GeopotentialHeight_IsbL-0970_RLatLon0.09_PT075H.grib2 2026-04-27 15:04 406K
20260427T12Z_MSC_RDPS_GeopotentialHeight_IsbL-0985_RLatLon0.09_PT075H.grib2 2026-04-27 15:04 417K
20260427T12Z_MSC_RDPS_GeopotentialHeight_IsbL-1000_RLatLon0.09_PT075H.grib2 2026-04-27 15:04 431K
20260427T12Z_MSC_RDPS_GeopotentialHeight_IsbL-1015_RLatLon0.09_PT075H.grib2 2026-04-27 15:04 447K
20260427T12Z_MSC_RDPS_Humidex_Sfc_RLatLon0.09_PT075H.grib2 2026-04-27 15:04 2.4M
20260427T12Z_MSC_RDPS_IcePellets-Accum1h_Sfc_RLatLon0.09_PT075H.grib2 2026-04-27 15:04 3.8K
20260427T12Z_MSC_RDPS_IcePellets-Accum3h_Sfc_RLatLon0.09_PT075H.grib2 2026-04-27 15:04 4.5K
20260427T12Z_MSC_RDPS_IcePellets-Accum_Sfc_RLatLon0.09_PT075H.grib2 2026-04-27 15:04 32K
20260427T12Z_MSC_RDPS_KIndex_Sfc_RLatLon0.09_PT075H.grib2 2026-04-27 15:04 2.5M
20260427T12Z_MSC_RDPS_LatentHeatNetFlux_Sfc_RLatLon0.09_PT075H.grib2 2026-04-27 15:04 368K
20260427T12Z_MSC_RDPS_LiftedIndex-MU-VT_IsbL-0500_RLatLon0.09_PT075H.grib2 2026-04-27 15:04 2.4M
20260427T12Z_MSC_RDPS_NetLongwaveRadiationFlux-Accum_Sfc_RLatLon0.09_PT075H.grib2 2026-04-27 15:04 475K
20260427T12Z_MSC_RDPS_NetShortwaveRadiationFlux-Accum_Sfc_RLatLon0.09_PT075H.grib2 2026-04-27 15:04 631K
20260427T12Z_MSC_RDPS_PlanetaryBoundaryLayerHeight_Sfc_RLatLon0.09_PT075H.grib2 2026-04-27 15:04 1.2M
20260427T12Z_MSC_RDPS_Precip-Accum1h_Sfc_RLatLon0.09_PT075H.grib2 2026-04-27 15:04 1.2M
20260427T12Z_MSC_RDPS_Precip-Accum3h_Sfc_RLatLon0.09_PT075H.grib2 2026-04-27 15:04 1.3M
20260427T12Z_MSC_RDPS_Precip-Accum_Sfc_RLatLon0.09_PT075H.grib2 2026-04-27 15:04 2.2M
20260427T12Z_MSC_RDPS_PrecipRate_Sfc_RLatLon0.09_PT075H.grib2 2026-04-27 15:04 175K
20260427T12Z_MSC_RDPS_PrecipType-Instant_Sfc_RLatLon0.09_PT075H.grib2 2026-04-27 15:04 551K
20260427T12Z_MSC_RDPS_Pressure-Trend3h_Sfc_RLatLon0.09_PT075H.grib2 2026-04-27 15:04 1.2M
20260427T12Z_MSC_RDPS_Pressure_MSL_RLatLon0.09_PT075H.grib2 2026-04-27 15:04 294K
20260427T12Z_MSC_RDPS_Pressure_PVU-1.5_RLatLon0.09_PT075H.grib2 2026-04-27 15:04 2.3M
20260427T12Z_MSC_RDPS_Pressure_PVU-1_RLatLon0.09_PT075H.grib2 2026-04-27 15:04 2.4M
20260427T12Z_MSC_RDPS_Pressure_PVU-2_RLatLon0.09_PT075H.grib2 2026-04-27 15:04 2.4M
20260427T12Z_MSC_RDPS_Pressure_Sfc_RLatLon0.09_PT075H.grib2 2026-04-27 15:04 500K
20260427T12Z_MSC_RDPS_RadiativeTemp_Sfc_RLatLon0.09_PT075H.grib2 2026-04-27 15:04 320K
20260427T12Z_MSC_RDPS_Rain-Accum1h_Sfc_RLatLon0.09_PT075H.grib2 2026-04-27 15:04 569K
20260427T12Z_MSC_RDPS_Rain-Accum3h_Sfc_RLatLon0.09_PT075H.grib2 2026-04-27 15:04 641K
20260427T12Z_MSC_RDPS_Rain-Accum_Sfc_RLatLon0.09_PT075H.grib2 2026-04-27 15:04 1.7M
20260427T12Z_MSC_RDPS_RelativeHumidity_AGL-2m_RLatLon0.09_PT075H.grib2 2026-04-27 15:04 1.0M
20260427T12Z_MSC_RDPS_RelativeHumidity_IsbL-0010_RLatLon0.09_PT075H.grib2 2026-04-27 15:04 628K
20260427T12Z_MSC_RDPS_RelativeHumidity_IsbL-0020_RLatLon0.09_PT075H.grib2 2026-04-27 15:04 670K
20260427T12Z_MSC_RDPS_RelativeHumidity_IsbL-0030_RLatLon0.09_PT075H.grib2 2026-04-27 15:04 604K
20260427T12Z_MSC_RDPS_RelativeHumidity_IsbL-0050_RLatLon0.09_PT075H.grib2 2026-04-27 15:04 319K
20260427T12Z_MSC_RDPS_RelativeHumidity_IsbL-0100_RLatLon0.09_PT075H.grib2 2026-04-27 15:04 277K
20260427T12Z_MSC_RDPS_RelativeHumidity_IsbL-0150_RLatLon0.09_PT075H.grib2 2026-04-27 15:04 404K
20260427T12Z_MSC_RDPS_RelativeHumidity_IsbL-0175_RLatLon0.09_PT075H.grib2 2026-04-27 15:04 476K
20260427T12Z_MSC_RDPS_RelativeHumidity_IsbL-0200_RLatLon0.09_PT075H.grib2 2026-04-27 15:04 551K
20260427T12Z_MSC_RDPS_RelativeHumidity_IsbL-0225_RLatLon0.09_PT075H.grib2 2026-04-27 15:04 624K
20260427T12Z_MSC_RDPS_RelativeHumidity_IsbL-0250_RLatLon0.09_PT075H.grib2 2026-04-27 15:04 698K
20260427T12Z_MSC_RDPS_RelativeHumidity_IsbL-0275_RLatLon0.09_PT075H.grib2 2026-04-27 15:04 722K
20260427T12Z_MSC_RDPS_RelativeHumidity_IsbL-0300_RLatLon0.09_PT075H.grib2 2026-04-27 15:04 765K
20260427T12Z_MSC_RDPS_RelativeHumidity_IsbL-0350_RLatLon0.09_PT075H.grib2 2026-04-27 15:04 784K
20260427T12Z_MSC_RDPS_RelativeHumidity_IsbL-0400_RLatLon0.09_PT075H.grib2 2026-04-27 15:04 794K
20260427T12Z_MSC_RDPS_RelativeHumidity_IsbL-0450_RLatLon0.09_PT075H.grib2 2026-04-27 15:04 795K
20260427T12Z_MSC_RDPS_RelativeHumidity_IsbL-0500_RLatLon0.09_PT075H.grib2 2026-04-27 15:04 805K
20260427T12Z_MSC_RDPS_RelativeHumidity_IsbL-0550_RLatLon0.09_PT075H.grib2 2026-04-27 15:04 820K
20260427T12Z_MSC_RDPS_RelativeHumidity_IsbL-0600_RLatLon0.09_PT075H.grib2 2026-04-27 15:04 844K
20260427T12Z_MSC_RDPS_RelativeHumidity_IsbL-0650_RLatLon0.09_PT075H.grib2 2026-04-27 15:04 859K
20260427T12Z_MSC_RDPS_RelativeHumidity_IsbL-0700_RLatLon0.09_PT075H.grib2 2026-04-27 15:04 878K
20260427T12Z_MSC_RDPS_RelativeHumidity_IsbL-0750_RLatLon0.09_PT075H.grib2 2026-04-27 15:04 915K
20260427T12Z_MSC_RDPS_RelativeHumidity_IsbL-0800_RLatLon0.09_PT075H.grib2 2026-04-27 15:04 1.0M
20260427T12Z_MSC_RDPS_RelativeHumidity_IsbL-0850_RLatLon0.09_PT075H.grib2 2026-04-27 15:04 1.0M
20260427T12Z_MSC_RDPS_RelativeHumidity_IsbL-0875_RLatLon0.09_PT075H.grib2 2026-04-27 15:04 1.1M
20260427T12Z_MSC_RDPS_RelativeHumidity_IsbL-0900_RLatLon0.09_PT075H.grib2 2026-04-27 15:04 1.1M
20260427T12Z_MSC_RDPS_RelativeHumidity_IsbL-0925_RLatLon0.09_PT075H.grib2 2026-04-27 15:04 1.1M
20260427T12Z_MSC_RDPS_RelativeHumidity_IsbL-0950_RLatLon0.09_PT075H.grib2 2026-04-27 15:04 1.1M
20260427T12Z_MSC_RDPS_RelativeHumidity_IsbL-0970_RLatLon0.09_PT075H.grib2 2026-04-27 15:04 1.1M
20260427T12Z_MSC_RDPS_RelativeHumidity_IsbL-0985_RLatLon0.09_PT075H.grib2 2026-04-27 15:04 1.0M
20260427T12Z_MSC_RDPS_RelativeHumidity_IsbL-1000_RLatLon0.09_PT075H.grib2 2026-04-27 15:04 1.0M
20260427T12Z_MSC_RDPS_RelativeHumidity_IsbL-1015_RLatLon0.09_PT075H.grib2 2026-04-27 15:04 1.0M
20260427T12Z_MSC_RDPS_Runoff-Accum_Sfc_RLatLon0.09_PT075H.grib2 2026-04-27 15:04 63K
20260427T12Z_MSC_RDPS_SWEATIndex_Sfc_RLatLon0.09_PT075H.grib2 2026-04-27 15:04 2.4M
20260427T12Z_MSC_RDPS_SeeingIndex_EAtm_RLatLon0.09_PT075H.grib2 2026-04-27 15:04 1.1M
20260427T12Z_MSC_RDPS_SensibleHeatNetFlux_Sfc_RLatLon0.09_PT075H.grib2 2026-04-27 15:04 348K
20260427T12Z_MSC_RDPS_ShowalterIndex_IsbL-0500_RLatLon0.09_PT075H.grib2 2026-04-27 15:04 2.6M
20260427T12Z_MSC_RDPS_SkyTransparencyIndex_EAtm_RLatLon0.09_PT075H.grib2 2026-04-27 15:04 679K
20260427T12Z_MSC_RDPS_Snow-Accum1h_Sfc_RLatLon0.09_PT075H.grib2 2026-04-27 15:04 455K
20260427T12Z_MSC_RDPS_Snow-Accum3h_Sfc_RLatLon0.09_PT075H.grib2 2026-04-27 15:04 458K
20260427T12Z_MSC_RDPS_Snow-Accum_Sfc_RLatLon0.09_PT075H.grib2 2026-04-27 15:04 840K
20260427T12Z_MSC_RDPS_SnowDensity_Sfc_RLatLon0.09_PT075H.grib2 2026-04-27 15:04 186K
20260427T12Z_MSC_RDPS_SnowDepth_Sfc_RLatLon0.09_PT075H.grib2 2026-04-27 15:04 691K
20260427T12Z_MSC_RDPS_SoilTemp_DBS-0to10cm_RLatLon0.09_PT075H.grib2 2026-04-27 15:04 239K
20260427T12Z_MSC_RDPS_SoilTemp_Sfc_RLatLon0.09_PT075H.grib2 2026-04-27 15:04 289K
20260427T12Z_MSC_RDPS_SoilVolumetricIceContent_Sfc_RLatLon0.09_PT075H.grib2 2026-04-27 15:04 165K
20260427T12Z_MSC_RDPS_SoilVolumetricWaterContent_DBS-0to10cm_RLatLon0.09_PT075H.grib2 2026-04-27 15:04 268K
20260427T12Z_MSC_RDPS_SoilVolumetricWaterContent_DBS-0to1cm_RLatLon0.09_PT075H.grib2 2026-04-27 15:04 338K
20260427T12Z_MSC_RDPS_SpecificHumidity_AGL-120m_RLatLon0.09_PT075H.grib2 2026-04-27 15:04 498K
20260427T12Z_MSC_RDPS_SpecificHumidity_AGL-2m_RLatLon0.09_PT075H.grib2 2026-04-27 15:04 667K
20260427T12Z_MSC_RDPS_SpecificHumidity_AGL-40m_RLatLon0.09_PT075H.grib2 2026-04-27 15:04 504K
20260427T12Z_MSC_RDPS_SpecificHumidity_AGL-80m_RLatLon0.09_PT075H.grib2 2026-04-27 15:04 500K
20260427T12Z_MSC_RDPS_SpecificHumidity_IsbL-0001_RLatLon0.09_PT075H.grib2 2026-04-27 15:04 358K
20260427T12Z_MSC_RDPS_SpecificHumidity_IsbL-0005_RLatLon0.09_PT075H.grib2 2026-04-27 15:04 351K
20260427T12Z_MSC_RDPS_SpecificHumidity_IsbL-0010_RLatLon0.09_PT075H.grib2 2026-04-27 15:04 389K
20260427T12Z_MSC_RDPS_SpecificHumidity_IsbL-0020_RLatLon0.09_PT075H.grib2 2026-04-27 15:04 376K
20260427T12Z_MSC_RDPS_SpecificHumidity_IsbL-0030_RLatLon0.09_PT075H.grib2 2026-04-27 15:04 431K
20260427T12Z_MSC_RDPS_SpecificHumidity_IsbL-0050_RLatLon0.09_PT075H.grib2 2026-04-27 15:04 473K
20260427T12Z_MSC_RDPS_SpecificHumidity_IsbL-0100_RLatLon0.09_PT075H.grib2 2026-04-27 15:04 441K
20260427T12Z_MSC_RDPS_SpecificHumidity_IsbL-0150_RLatLon0.09_PT075H.grib2 2026-04-27 15:04 447K
20260427T12Z_MSC_RDPS_SpecificHumidity_IsbL-0175_RLatLon0.09_PT075H.grib2 2026-04-27 15:04 534K
20260427T12Z_MSC_RDPS_SpecificHumidity_IsbL-0200_RLatLon0.09_PT075H.grib2 2026-04-27 15:04 446K
20260427T12Z_MSC_RDPS_SpecificHumidity_IsbL-0225_RLatLon0.09_PT075H.grib2 2026-04-27 15:04 453K
20260427T12Z_MSC_RDPS_SpecificHumidity_IsbL-0250_RLatLon0.09_PT075H.grib2 2026-04-27 15:04 558K
20260427T12Z_MSC_RDPS_SpecificHumidity_IsbL-0275_RLatLon0.09_PT075H.grib2 2026-04-27 15:04 472K
20260427T12Z_MSC_RDPS_SpecificHumidity_IsbL-0300_RLatLon0.09_PT075H.grib2 2026-04-27 15:04 570K
20260427T12Z_MSC_RDPS_SpecificHumidity_IsbL-0350_RLatLon0.09_PT075H.grib2 2026-04-27 15:04 562K
20260427T12Z_MSC_RDPS_SpecificHumidity_IsbL-0400_RLatLon0.09_PT075H.grib2 2026-04-27 15:04 515K
20260427T12Z_MSC_RDPS_SpecificHumidity_IsbL-0450_RLatLon0.09_PT075H.grib2 2026-04-27 15:04 564K
20260427T12Z_MSC_RDPS_SpecificHumidity_IsbL-0500_RLatLon0.09_PT075H.grib2 2026-04-27 15:04 502K
20260427T12Z_MSC_RDPS_SpecificHumidity_IsbL-0550_RLatLon0.09_PT075H.grib2 2026-04-27 15:04 575K
20260427T12Z_MSC_RDPS_SpecificHumidity_IsbL-0600_RLatLon0.09_PT075H.grib2 2026-04-27 15:04 633K
20260427T12Z_MSC_RDPS_SpecificHumidity_IsbL-0650_RLatLon0.09_PT075H.grib2 2026-04-27 15:04 552K
20260427T12Z_MSC_RDPS_SpecificHumidity_IsbL-0700_RLatLon0.09_PT075H.grib2 2026-04-27 15:04 592K
20260427T12Z_MSC_RDPS_SpecificHumidity_IsbL-0750_RLatLon0.09_PT075H.grib2 2026-04-27 15:04 643K
20260427T12Z_MSC_RDPS_SpecificHumidity_IsbL-0800_RLatLon0.09_PT075H.grib2 2026-04-27 15:04 721K
20260427T12Z_MSC_RDPS_SpecificHumidity_IsbL-0850_RLatLon0.09_PT075H.grib2 2026-04-27 15:04 798K
20260427T12Z_MSC_RDPS_SpecificHumidity_IsbL-0875_RLatLon0.09_PT075H.grib2 2026-04-27 15:04 828K
20260427T12Z_MSC_RDPS_SpecificHumidity_IsbL-0900_RLatLon0.09_PT075H.grib2 2026-04-27 15:04 843K
20260427T12Z_MSC_RDPS_SpecificHumidity_IsbL-0925_RLatLon0.09_PT075H.grib2 2026-04-27 15:04 843K
20260427T12Z_MSC_RDPS_SpecificHumidity_IsbL-0950_RLatLon0.09_PT075H.grib2 2026-04-27 15:04 706K
20260427T12Z_MSC_RDPS_SpecificHumidity_IsbL-0970_RLatLon0.09_PT075H.grib2 2026-04-27 15:04 698K
20260427T12Z_MSC_RDPS_SpecificHumidity_IsbL-0985_RLatLon0.09_PT075H.grib2 2026-04-27 15:04 691K
20260427T12Z_MSC_RDPS_SpecificHumidity_IsbL-1000_RLatLon0.09_PT075H.grib2 2026-04-27 15:04 685K
20260427T12Z_MSC_RDPS_SpecificHumidity_IsbL-1015_RLatLon0.09_PT075H.grib2 2026-04-27 15:04 676K
20260427T12Z_MSC_RDPS_SpecificHumidity_Sfc_RLatLon0.09_PT075H.grib2 2026-04-27 15:04 325K
20260427T12Z_MSC_RDPS_StormRelativeHelicity_EtaL-10000_RLatLon0.09_PT075H.grib2 2026-04-27 15:04 1.1M
20260427T12Z_MSC_RDPS_StormSeverityIndex_EtaL-10000_RLatLon0.09_PT075H.grib2 2026-04-27 15:04 1.1M
20260427T12Z_MSC_RDPS_Thickness_IsbL-0850to0700_RLatLon0.09_PT075H.grib2 2026-04-27 15:04 176K
20260427T12Z_MSC_RDPS_Thickness_IsbL-1000to0500_RLatLon0.09_PT075H.grib2 2026-04-27 15:04 200K
20260427T12Z_MSC_RDPS_Thickness_IsbL-1000to0850_RLatLon0.09_PT075H.grib2 2026-04-27 15:04 264K
20260427T12Z_MSC_RDPS_TotalCloudCover_Sfc_RLatLon0.09_PT075H.grib2 2026-04-27 15:04 658K
20260427T12Z_MSC_RDPS_TotalTotalsIndex_Sfc_RLatLon0.09_PT075H.grib2 2026-04-27 15:04 2.4M
20260427T12Z_MSC_RDPS_UVIndex-ClearSky_Sfc_RLatLon0.09_PT075H.grib2 2026-04-27 15:04 182K
20260427T12Z_MSC_RDPS_UVIndex_Sfc_RLatLon0.09_PT075H.grib2 2026-04-27 15:04 417K
20260427T12Z_MSC_RDPS_UpwardLongwaveRadiationFlux_NTAtm_RLatLon0.09_PT075H.grib2 2026-04-27 15:04 491K
20260427T12Z_MSC_RDPS_UpwardShortwaveRadiationFlux_NTAtm_RLatLon0.09_PT075H.grib2 2026-04-27 15:04 465K
20260427T12Z_MSC_RDPS_VerticalVelocity_IsbL-0250_RLatLon0.09_PT075H.grib2 2026-04-27 15:04 579K
20260427T12Z_MSC_RDPS_VerticalVelocity_IsbL-0500_RLatLon0.09_PT075H.grib2 2026-04-27 15:04 542K
20260427T12Z_MSC_RDPS_VerticalVelocity_IsbL-0700_RLatLon0.09_PT075H.grib2 2026-04-27 15:04 585K
20260427T12Z_MSC_RDPS_VerticalVelocity_IsbL-0850_RLatLon0.09_PT075H.grib2 2026-04-27 15:04 633K
20260427T12Z_MSC_RDPS_VerticalWindShear_EtaL-6500_RLatLon0.09_PT075H.grib2 2026-04-27 15:04 1.2M
20260427T12Z_MSC_RDPS_WindChill_Sfc_RLatLon0.09_PT075H.grib2 2026-04-27 15:04 1.1M
20260427T12Z_MSC_RDPS_WindDir_AGL-10m_RLatLon0.09_PT075H.grib2 2026-04-27 15:04 1.0M
20260427T12Z_MSC_RDPS_WindDir_AGL-120m_RLatLon0.09_PT075H.grib2 2026-04-27 15:04 626K
20260427T12Z_MSC_RDPS_WindDir_AGL-40m_RLatLon0.09_PT075H.grib2 2026-04-27 15:04 651K
20260427T12Z_MSC_RDPS_WindDir_AGL-80m_RLatLon0.09_PT075H.grib2 2026-04-27 15:04 636K
20260427T12Z_MSC_RDPS_WindDir_IsbL-0001_RLatLon0.09_PT075H.grib2 2026-04-27 15:04 304K
20260427T12Z_MSC_RDPS_WindDir_IsbL-0005_RLatLon0.09_PT075H.grib2 2026-04-27 15:04 374K
20260427T12Z_MSC_RDPS_WindDir_IsbL-0010_RLatLon0.09_PT075H.grib2 2026-04-27 15:04 382K
20260427T12Z_MSC_RDPS_WindDir_IsbL-0020_RLatLon0.09_PT075H.grib2 2026-04-27 15:04 410K
20260427T12Z_MSC_RDPS_WindDir_IsbL-0030_RLatLon0.09_PT075H.grib2 2026-04-27 15:04 418K
20260427T12Z_MSC_RDPS_WindDir_IsbL-0050_RLatLon0.09_PT075H.grib2 2026-04-27 15:04 436K
20260427T12Z_MSC_RDPS_WindDir_IsbL-0100_RLatLon0.09_PT075H.grib2 2026-04-27 15:04 437K
20260427T12Z_MSC_RDPS_WindDir_IsbL-0150_RLatLon0.09_PT075H.grib2 2026-04-27 15:04 415K
20260427T12Z_MSC_RDPS_WindDir_IsbL-0175_RLatLon0.09_PT075H.grib2 2026-04-27 15:04 431K
20260427T12Z_MSC_RDPS_WindDir_IsbL-0200_RLatLon0.09_PT075H.grib2 2026-04-27 15:04 449K
20260427T12Z_MSC_RDPS_WindDir_IsbL-0225_RLatLon0.09_PT075H.grib2 2026-04-27 15:04 454K
20260427T12Z_MSC_RDPS_WindDir_IsbL-0250_RLatLon0.09_PT075H.grib2 2026-04-27 15:04 453K
20260427T12Z_MSC_RDPS_WindDir_IsbL-0275_RLatLon0.09_PT075H.grib2 2026-04-27 15:04 478K
20260427T12Z_MSC_RDPS_WindDir_IsbL-0300_RLatLon0.09_PT075H.grib2 2026-04-27 15:04 474K
20260427T12Z_MSC_RDPS_WindDir_IsbL-0350_RLatLon0.09_PT075H.grib2 2026-04-27 15:04 497K
20260427T12Z_MSC_RDPS_WindDir_IsbL-0400_RLatLon0.09_PT075H.grib2 2026-04-27 15:04 507K
20260427T12Z_MSC_RDPS_WindDir_IsbL-0450_RLatLon0.09_PT075H.grib2 2026-04-27 15:04 522K
20260427T12Z_MSC_RDPS_WindDir_IsbL-0500_RLatLon0.09_PT075H.grib2 2026-04-27 15:04 539K
20260427T12Z_MSC_RDPS_WindDir_IsbL-0550_RLatLon0.09_PT075H.grib2 2026-04-27 15:04 562K
20260427T12Z_MSC_RDPS_WindDir_IsbL-0600_RLatLon0.09_PT075H.grib2 2026-04-27 15:04 592K
20260427T12Z_MSC_RDPS_WindDir_IsbL-0650_RLatLon0.09_PT075H.grib2 2026-04-27 15:04 639K
20260427T12Z_MSC_RDPS_WindDir_IsbL-0700_RLatLon0.09_PT075H.grib2 2026-04-27 15:04 678K
20260427T12Z_MSC_RDPS_WindDir_IsbL-0750_RLatLon0.09_PT075H.grib2 2026-04-27 15:04 721K
20260427T12Z_MSC_RDPS_WindDir_IsbL-0800_RLatLon0.09_PT075H.grib2 2026-04-27 15:04 786K
20260427T12Z_MSC_RDPS_WindDir_IsbL-0850_RLatLon0.09_PT075H.grib2 2026-04-27 15:04 862K
20260427T12Z_MSC_RDPS_WindDir_IsbL-0875_RLatLon0.09_PT075H.grib2 2026-04-27 15:04 897K
20260427T12Z_MSC_RDPS_WindDir_IsbL-0900_RLatLon0.09_PT075H.grib2 2026-04-27 15:04 918K
20260427T12Z_MSC_RDPS_WindDir_IsbL-0925_RLatLon0.09_PT075H.grib2 2026-04-27 15:04 930K
20260427T12Z_MSC_RDPS_WindDir_IsbL-0950_RLatLon0.09_PT075H.grib2 2026-04-27 15:04 929K
20260427T12Z_MSC_RDPS_WindDir_IsbL-0970_RLatLon0.09_PT075H.grib2 2026-04-27 15:04 938K
20260427T12Z_MSC_RDPS_WindDir_IsbL-0985_RLatLon0.09_PT075H.grib2 2026-04-27 15:04 947K
20260427T12Z_MSC_RDPS_WindDir_IsbL-1000_RLatLon0.09_PT075H.grib2 2026-04-27 15:04 960K
20260427T12Z_MSC_RDPS_WindDir_IsbL-1015_RLatLon0.09_PT075H.grib2 2026-04-27 15:04 1.0M
20260427T12Z_MSC_RDPS_WindGust-Max_AGL-10m_RLatLon0.09_PT075H.grib2 2026-04-27 15:04 1.0M
20260427T12Z_MSC_RDPS_WindGust-Min_AGL-10m_RLatLon0.09_PT075H.grib2 2026-04-27 15:04 1.0M
20260427T12Z_MSC_RDPS_WindGust_AGL-10m_RLatLon0.09_PT075H.grib2 2026-04-27 15:04 1.0M
20260427T12Z_MSC_RDPS_WindSpeed_AGL-10m_RLatLon0.09_PT075H.grib2 2026-04-27 15:04 840K
20260427T12Z_MSC_RDPS_WindSpeed_AGL-120m_RLatLon0.09_PT075H.grib2 2026-04-27 15:04 539K
20260427T12Z_MSC_RDPS_WindSpeed_AGL-40m_RLatLon0.09_PT075H.grib2 2026-04-27 15:04 538K
20260427T12Z_MSC_RDPS_WindSpeed_AGL-80m_RLatLon0.09_PT075H.grib2 2026-04-27 15:04 538K
20260427T12Z_MSC_RDPS_WindSpeed_IsbL-0001_RLatLon0.09_PT075H.grib2 2026-04-27 15:04 337K
20260427T12Z_MSC_RDPS_WindSpeed_IsbL-0005_RLatLon0.09_PT075H.grib2 2026-04-27 15:04 387K
20260427T12Z_MSC_RDPS_WindSpeed_IsbL-0010_RLatLon0.09_PT075H.grib2 2026-04-27 15:04 401K
20260427T12Z_MSC_RDPS_WindSpeed_IsbL-0020_RLatLon0.09_PT075H.grib2 2026-04-27 15:04 325K
20260427T12Z_MSC_RDPS_WindSpeed_IsbL-0030_RLatLon0.09_PT075H.grib2 2026-04-27 15:04 325K
20260427T12Z_MSC_RDPS_WindSpeed_IsbL-0050_RLatLon0.09_PT075H.grib2 2026-04-27 15:04 456K
20260427T12Z_MSC_RDPS_WindSpeed_IsbL-0100_RLatLon0.09_PT075H.grib2 2026-04-27 15:04 478K
20260427T12Z_MSC_RDPS_WindSpeed_IsbL-0150_RLatLon0.09_PT075H.grib2 2026-04-27 15:04 381K
20260427T12Z_MSC_RDPS_WindSpeed_IsbL-0175_RLatLon0.09_PT075H.grib2 2026-04-27 15:04 426K
20260427T12Z_MSC_RDPS_WindSpeed_IsbL-0200_RLatLon0.09_PT075H.grib2 2026-04-27 15:04 442K
20260427T12Z_MSC_RDPS_WindSpeed_IsbL-0225_RLatLon0.09_PT075H.grib2 2026-04-27 15:04 447K
20260427T12Z_MSC_RDPS_WindSpeed_IsbL-0250_RLatLon0.09_PT075H.grib2 2026-04-27 15:04 451K
20260427T12Z_MSC_RDPS_WindSpeed_IsbL-0275_RLatLon0.09_PT075H.grib2 2026-04-27 15:04 471K
20260427T12Z_MSC_RDPS_WindSpeed_IsbL-0300_RLatLon0.09_PT075H.grib2 2026-04-27 15:04 468K
20260427T12Z_MSC_RDPS_WindSpeed_IsbL-0350_RLatLon0.09_PT075H.grib2 2026-04-27 15:04 481K
20260427T12Z_MSC_RDPS_WindSpeed_IsbL-0400_RLatLon0.09_PT075H.grib2 2026-04-27 15:04 465K
20260427T12Z_MSC_RDPS_WindSpeed_IsbL-0450_RLatLon0.09_PT075H.grib2 2026-04-27 15:04 463K
20260427T12Z_MSC_RDPS_WindSpeed_IsbL-0500_RLatLon0.09_PT075H.grib2 2026-04-27 15:04 465K
20260427T12Z_MSC_RDPS_WindSpeed_IsbL-0550_RLatLon0.09_PT075H.grib2 2026-04-27 15:04 465K
20260427T12Z_MSC_RDPS_WindSpeed_IsbL-0600_RLatLon0.09_PT075H.grib2 2026-04-27 15:04 590K
20260427T12Z_MSC_RDPS_WindSpeed_IsbL-0650_RLatLon0.09_PT075H.grib2 2026-04-27 15:04 609K
20260427T12Z_MSC_RDPS_WindSpeed_IsbL-0700_RLatLon0.09_PT075H.grib2 2026-04-27 15:04 679K
20260427T12Z_MSC_RDPS_WindSpeed_IsbL-0750_RLatLon0.09_PT075H.grib2 2026-04-27 15:04 706K
20260427T12Z_MSC_RDPS_WindSpeed_IsbL-0800_RLatLon0.09_PT075H.grib2 2026-04-27 15:04 748K
20260427T12Z_MSC_RDPS_WindSpeed_IsbL-0850_RLatLon0.09_PT075H.grib2 2026-04-27 15:04 809K
20260427T12Z_MSC_RDPS_WindSpeed_IsbL-0875_RLatLon0.09_PT075H.grib2 2026-04-27 15:04 833K
20260427T12Z_MSC_RDPS_WindSpeed_IsbL-0900_RLatLon0.09_PT075H.grib2 2026-04-27 15:04 849K
20260427T12Z_MSC_RDPS_WindSpeed_IsbL-0925_RLatLon0.09_PT075H.grib2 2026-04-27 15:04 862K
20260427T12Z_MSC_RDPS_WindSpeed_IsbL-0950_RLatLon0.09_PT075H.grib2 2026-04-27 15:04 859K
20260427T12Z_MSC_RDPS_WindSpeed_IsbL-0970_RLatLon0.09_PT075H.grib2 2026-04-27 15:04 860K
20260427T12Z_MSC_RDPS_WindSpeed_IsbL-0985_RLatLon0.09_PT075H.grib2 2026-04-27 15:04 852K
20260427T12Z_MSC_RDPS_WindSpeed_IsbL-1000_RLatLon0.09_PT075H.grib2 2026-04-27 15:04 849K
20260427T12Z_MSC_RDPS_WindSpeed_IsbL-1015_RLatLon0.09_PT075H.grib2 2026-04-27 15:04 839K
20260427T12Z_MSC_RDPS_WindU_AGL-10m_RLatLon0.09_PT075H.grib2 2026-04-27 15:04 432K
20260427T12Z_MSC_RDPS_WindU_AGL-120m_RLatLon0.09_PT075H.grib2 2026-04-27 15:04 418K
20260427T12Z_MSC_RDPS_WindU_AGL-40m_RLatLon0.09_PT075H.grib2 2026-04-27 15:04 537K
20260427T12Z_MSC_RDPS_WindU_AGL-80m_RLatLon0.09_PT075H.grib2 2026-04-27 15:04 536K
20260427T12Z_MSC_RDPS_WindU_IsbL-0001_RLatLon0.09_PT075H.grib2 2026-04-27 15:04 246K
20260427T12Z_MSC_RDPS_WindU_IsbL-0005_RLatLon0.09_PT075H.grib2 2026-04-27 15:04 288K
20260427T12Z_MSC_RDPS_WindU_IsbL-0010_RLatLon0.09_PT075H.grib2 2026-04-27 15:04 301K
20260427T12Z_MSC_RDPS_WindU_IsbL-0020_RLatLon0.09_PT075H.grib2 2026-04-27 15:04 316K
20260427T12Z_MSC_RDPS_WindU_IsbL-0030_RLatLon0.09_PT075H.grib2 2026-04-27 15:04 316K
20260427T12Z_MSC_RDPS_WindU_IsbL-0050_RLatLon0.09_PT075H.grib2 2026-04-27 15:04 343K
20260427T12Z_MSC_RDPS_WindU_IsbL-0100_RLatLon0.09_PT075H.grib2 2026-04-27 15:04 433K
20260427T12Z_MSC_RDPS_WindU_IsbL-0150_RLatLon0.09_PT075H.grib2 2026-04-27 15:04 397K
20260427T12Z_MSC_RDPS_WindU_IsbL-0175_RLatLon0.09_PT075H.grib2 2026-04-27 15:04 420K
20260427T12Z_MSC_RDPS_WindU_IsbL-0200_RLatLon0.09_PT075H.grib2 2026-04-27 15:04 337K
20260427T12Z_MSC_RDPS_WindU_IsbL-0225_RLatLon0.09_PT075H.grib2 2026-04-27 15:04 340K
20260427T12Z_MSC_RDPS_WindU_IsbL-0250_RLatLon0.09_PT075H.grib2 2026-04-27 15:04 342K
20260427T12Z_MSC_RDPS_WindU_IsbL-0275_RLatLon0.09_PT075H.grib2 2026-04-27 15:04 358K
20260427T12Z_MSC_RDPS_WindU_IsbL-0300_RLatLon0.09_PT075H.grib2 2026-04-27 15:04 354K
20260427T12Z_MSC_RDPS_WindU_IsbL-0350_RLatLon0.09_PT075H.grib2 2026-04-27 15:04 365K
20260427T12Z_MSC_RDPS_WindU_IsbL-0400_RLatLon0.09_PT075H.grib2 2026-04-27 15:04 470K
20260427T12Z_MSC_RDPS_WindU_IsbL-0450_RLatLon0.09_PT075H.grib2 2026-04-27 15:04 468K
20260427T12Z_MSC_RDPS_WindU_IsbL-0500_RLatLon0.09_PT075H.grib2 2026-04-27 15:04 471K
20260427T12Z_MSC_RDPS_WindU_IsbL-0550_RLatLon0.09_PT075H.grib2 2026-04-27 15:04 453K
20260427T12Z_MSC_RDPS_WindU_IsbL-0600_RLatLon0.09_PT075H.grib2 2026-04-27 15:04 459K
20260427T12Z_MSC_RDPS_WindU_IsbL-0650_RLatLon0.09_PT075H.grib2 2026-04-27 15:04 479K
20260427T12Z_MSC_RDPS_WindU_IsbL-0700_RLatLon0.09_PT075H.grib2 2026-04-27 15:04 501K
20260427T12Z_MSC_RDPS_WindU_IsbL-0750_RLatLon0.09_PT075H.grib2 2026-04-27 15:04 526K
20260427T12Z_MSC_RDPS_WindU_IsbL-0800_RLatLon0.09_PT075H.grib2 2026-04-27 15:04 693K
20260427T12Z_MSC_RDPS_WindU_IsbL-0850_RLatLon0.09_PT075H.grib2 2026-04-27 15:04 618K
20260427T12Z_MSC_RDPS_WindU_IsbL-0875_RLatLon0.09_PT075H.grib2 2026-04-27 15:04 637K
20260427T12Z_MSC_RDPS_WindU_IsbL-0900_RLatLon0.09_PT075H.grib2 2026-04-27 15:04 649K
20260427T12Z_MSC_RDPS_WindU_IsbL-0925_RLatLon0.09_PT075H.grib2 2026-04-27 15:04 657K
20260427T12Z_MSC_RDPS_WindU_IsbL-0950_RLatLon0.09_PT075H.grib2 2026-04-27 15:04 652K
20260427T12Z_MSC_RDPS_WindU_IsbL-0970_RLatLon0.09_PT075H.grib2 2026-04-27 15:04 652K
20260427T12Z_MSC_RDPS_WindU_IsbL-0985_RLatLon0.09_PT075H.grib2 2026-04-27 15:04 650K
20260427T12Z_MSC_RDPS_WindU_IsbL-1000_RLatLon0.09_PT075H.grib2 2026-04-27 15:04 787K
20260427T12Z_MSC_RDPS_WindU_IsbL-1015_RLatLon0.09_PT075H.grib2 2026-04-27 15:04 781K
20260427T12Z_MSC_RDPS_WindV_AGL-10m_RLatLon0.09_PT075H.grib2 2026-04-27 15:04 431K
20260427T12Z_MSC_RDPS_WindV_AGL-120m_RLatLon0.09_PT075H.grib2 2026-04-27 15:04 534K
20260427T12Z_MSC_RDPS_WindV_AGL-40m_RLatLon0.09_PT075H.grib2 2026-04-27 15:04 534K
20260427T12Z_MSC_RDPS_WindV_AGL-80m_RLatLon0.09_PT075H.grib2 2026-04-27 15:04 533K
20260427T12Z_MSC_RDPS_WindV_IsbL-0001_RLatLon0.09_PT075H.grib2 2026-04-27 15:04 248K
20260427T12Z_MSC_RDPS_WindV_IsbL-0005_RLatLon0.09_PT075H.grib2 2026-04-27 15:04 289K
20260427T12Z_MSC_RDPS_WindV_IsbL-0010_RLatLon0.09_PT075H.grib2 2026-04-27 15:04 304K
20260427T12Z_MSC_RDPS_WindV_IsbL-0020_RLatLon0.09_PT075H.grib2 2026-04-27 15:04 320K
20260427T12Z_MSC_RDPS_WindV_IsbL-0030_RLatLon0.09_PT075H.grib2 2026-04-27 15:04 319K
20260427T12Z_MSC_RDPS_WindV_IsbL-0050_RLatLon0.09_PT075H.grib2 2026-04-27 15:04 344K
20260427T12Z_MSC_RDPS_WindV_IsbL-0100_RLatLon0.09_PT075H.grib2 2026-04-27 15:04 429K
20260427T12Z_MSC_RDPS_WindV_IsbL-0150_RLatLon0.09_PT075H.grib2 2026-04-27 15:04 394K
20260427T12Z_MSC_RDPS_WindV_IsbL-0175_RLatLon0.09_PT075H.grib2 2026-04-27 15:04 323K
20260427T12Z_MSC_RDPS_WindV_IsbL-0200_RLatLon0.09_PT075H.grib2 2026-04-27 15:04 335K
20260427T12Z_MSC_RDPS_WindV_IsbL-0225_RLatLon0.09_PT075H.grib2 2026-04-27 15:04 339K
20260427T12Z_MSC_RDPS_WindV_IsbL-0250_RLatLon0.09_PT075H.grib2 2026-04-27 15:04 340K
20260427T12Z_MSC_RDPS_WindV_IsbL-0275_RLatLon0.09_PT075H.grib2 2026-04-27 15:04 356K
20260427T12Z_MSC_RDPS_WindV_IsbL-0300_RLatLon0.09_PT075H.grib2 2026-04-27 15:04 352K
20260427T12Z_MSC_RDPS_WindV_IsbL-0350_RLatLon0.09_PT075H.grib2 2026-04-27 15:04 361K
20260427T12Z_MSC_RDPS_WindV_IsbL-0400_RLatLon0.09_PT075H.grib2 2026-04-27 15:04 466K
20260427T12Z_MSC_RDPS_WindV_IsbL-0450_RLatLon0.09_PT075H.grib2 2026-04-27 15:04 464K
20260427T12Z_MSC_RDPS_WindV_IsbL-0500_RLatLon0.09_PT075H.grib2 2026-04-27 15:04 467K
20260427T12Z_MSC_RDPS_WindV_IsbL-0550_RLatLon0.09_PT075H.grib2 2026-04-27 15:04 467K
20260427T12Z_MSC_RDPS_WindV_IsbL-0600_RLatLon0.09_PT075H.grib2 2026-04-27 15:04 474K
20260427T12Z_MSC_RDPS_WindV_IsbL-0650_RLatLon0.09_PT075H.grib2 2026-04-27 15:04 474K
20260427T12Z_MSC_RDPS_WindV_IsbL-0700_RLatLon0.09_PT075H.grib2 2026-04-27 15:04 496K
20260427T12Z_MSC_RDPS_WindV_IsbL-0750_RLatLon0.09_PT075H.grib2 2026-04-27 15:04 520K
20260427T12Z_MSC_RDPS_WindV_IsbL-0800_RLatLon0.09_PT075H.grib2 2026-04-27 15:04 687K
20260427T12Z_MSC_RDPS_WindV_IsbL-0850_RLatLon0.09_PT075H.grib2 2026-04-27 15:04 748K
20260427T12Z_MSC_RDPS_WindV_IsbL-0875_RLatLon0.09_PT075H.grib2 2026-04-27 15:04 772K
20260427T12Z_MSC_RDPS_WindV_IsbL-0900_RLatLon0.09_PT075H.grib2 2026-04-27 15:04 648K
20260427T12Z_MSC_RDPS_WindV_IsbL-0925_RLatLon0.09_PT075H.grib2 2026-04-27 15:04 797K
20260427T12Z_MSC_RDPS_WindV_IsbL-0950_RLatLon0.09_PT075H.grib2 2026-04-27 15:04 792K
20260427T12Z_MSC_RDPS_WindV_IsbL-0970_RLatLon0.09_PT075H.grib2 2026-04-27 15:04 792K
20260427T12Z_MSC_RDPS_WindV_IsbL-0985_RLatLon0.09_PT075H.grib2 2026-04-27 15:04 836K
20260427T12Z_MSC_RDPS_WindV_IsbL-1000_RLatLon0.09_PT075H.grib2 2026-04-27 15:04 832K
20260427T12Z_MSC_RDPS_WindV_IsbL-1015_RLatLon0.09_PT075H.grib2 2026-04-27 15:04 825K